METEOR 2-12 DEB, 59995

Orbit data source: Space-Track

METEOR 2-12 DEB, 59995 is space debris in LEO originally from a launch on Wed, 06 Feb 1985 UTC launched from the Plesetsk Missile And Space Complex (PKMTR). Debris objects in space refer to the collection of defunct objects orbiting the Earth. Examples of debris include non-operational satellites, rocket bodies, and fragments generated from explosions, collisions, or faulty payload assembly.

Loading next visibility...
Identifier
59995, 1985-013F
Orbit
LEO
Country
Flag of CISCIS
Related business
Manufacturer
Unknown
Mission
Spacecraft
Bus & Motor
Unknown
Mass
Unknown
Launch date (UTC)
1985-02-06 (41 years ago)
Launch vehicle
Unknown
Launch site
Plesetsk Missile And Space Complex (PKMTR)
Object type
Payload
Rocket body
Debris
Shape & HBR
Unknown shape, 0.1 m
Radar Cross Section
Small (<0.1 m²)

Expand to show TLE details & history
Last TLE update: 5 months ago

TLE from 5 months ago
0 METEOR 2-12 DEB
1 59995U 85013F   26032.70556062  .00003951  00000-0  24835-2 0  9990
2 59995  82.5343  25.1949 0019083 115.9294 244.3846 14.04069790 89004
Epoch: 2026-02-01T16:56Z
TLE epoch observation values (Epoch: 2026-02-01T16:56:00.437Z)
Latitude
-0.00009°
Longitude
-0.71829°
Altitude
888.676 km
Speed
7.405 km/s
True Right ascension
01h 40m 46s
True Declination
0° 00' 00"
Sunlit
Object was in daylight at epoch
Visualization orbit readout
Latitude
Unknown
Longitude
Unknown
Altitude
Unknown
Speed
Unknown
Apparent Right ascension
Unknown
Apparent Declination
Unknown
Sunlit
N/A
Visualization observer readout
Local Sidereal Time
21:28:18
Azimuth
Unknown
Elevation
Unknown
Doppler factor
Unknown
Orbital elements
Apogee altitude
890.706 km
Perigee altitude
863.016 km
Semi-major axis
7,254.998 km
Eccentricity
0.00191
Inclination
82.5343°
RAAN
25.1949°
Arg. of periapsis
115.9294°
True anomaly
244.18762°
Mean anomaly
244.3846°
Eccentric anomaly
244.28609°
Mean motion
3.51226 °/min
Orbital period
102.5 mins
BSTAR
0.0024835
Loading maneuver chart data...
Computing Atmospheric mass density...
Loading historical data...
Loading historical data...
Loading historical data...
Loading historical data...
Loading historical data...
Loading historical data...
Loading historical data...

Documentation

Showing up to 5 results
|